Погода в Малом Ашапе

Россия / Пермский край     57°04′47″N   56°34′51″E
темп.,
°C
ветер,
м/с
пор.,
м/с
влажн.,
%
обл.,
%
осадки,
мм/ч
давл.,
гПа
погр.,
м
25 февраля, чт
чт2523:00−25с4109554 0.0 1030203
02:00−27с23992 0.0 103021
05:00−29ссз12992 0.0 103119
08:00−29з11982 0.0 103119
11:00−22ююз22871 0.0 1031220
14:00−17ююз23780 0.0 1030527
17:00−17юз358830 0.0 1029444
20:00−24ююз339617 0.0 102935
26 февраля, пт
пт2623:00−27ю23978 0.0 102937
02:00−28ю23980 0.0 102732
05:00−28ююв23954 0.0 102734
08:00−29ююв239525 0.0 102627
11:00−22ю369113 0.0 1025306
14:00−16ююв368882 0.0 1023510
17:00−14ююв378891 0.0 1022653
20:00−18ююв239793 0.0 102029
27 февраля, сб
сб2723:00−19юв359597 0.0 101999
02:00−20юв369266 0.0 101593
05:00−19юв399383 0.0 1013206
08:00−18вюв41091100 0.0 1009269
11:00−16вюв51093100 0.1 1007353
14:00−13вюв51094100 1.1 1005533
17:00−13вюв5893100 1.9 1005515
20:00−15в51095100 0.4 1005388
28 февраля, вс
вс2823:00−17в41094100 0.5 1006360
02:00−17всв4996100 0.3 1005362
05:00−16всв4995100 0.5 1006378
08:00−16св5995100 0.2 1005351
11:00−15св5894100 0.5 1006396
14:00−12св5793100 0.3 1007481
17:00−12св5894100 0.6 1008469
20:00−14ссв5995100 0.5 1010360
1 марта, пн
пн123:00−16св5995100 0.9 1012380
02:00−17ссв5896100 0.4 1013342
05:00−19ссв4897100 0.6 1015271
08:00−20ссв4897100 0.1 1016268
11:00−19ссв459699 0.2 1016256
14:00−14ссв349198 0.0 1016344
17:00−13ссв128999 0.0 1016298
20:00−17юз229778 0.0 101520